User: anonymous   Login
Location: York
(31.8935°S, 116.7682°E)
Time: 10:28:25
(UTC+08:00)
Language:

DX 1 - Orbit

View from above orbital plane
View from above orbital plane
View from above satellite
View from above satellite

Ground track
Ground track

The orbit data is extracted from the following two-line orbital elements,

1 40071U 14037C   21206.54334634  .00000149  00000-0  26506-4 0  9997
2 40071  98.4497  53.2487 0007231 289.2421  70.8022 14.81517113380939
Epoch (UTC): 25 July 2021 13:02:25
Eccentricity: 0.0007231
inclination: 98.4497°
perigee height: 619 km
apogee height: 629 km
right ascension of ascending node: 53.2487°
argument of perigee: 289.2421°
revolutions per day: 14.81517113
mean anomaly at epoch: 70.8022°
orbit number at epoch: 38093

The dashed part of the orbit path shows where the satellite is in the earth's shadow,  

DLR